This is the latest recevied weather packets stored in our database for station/object YM2KV-13. If no packets are shown the sender has not sent any weather packets the latest 10 day(s).
| Time | Temp. | Humidity | Pressure | Rain* | Wind** | Luminosity | Snow |
|---|---|---|---|---|---|---|---|
| 1777351697 | 5° C | 81% | 1030.6 hPa | - | - | - | - |
| 1777351097 | 3.89° C | 83% | 1030.5 hPa | - | - | - | - |
| 1777350497 | 3.33° C | 84% | 1030.5 hPa | - | - | - | - |
| 1777349897 | 2.78° C | 85% | 1030.6 hPa | - | - | - | - |
| 1777349297 | 2.22° C | 84% | 1030.6 hPa | - | - | - | - |
| 1777348697 | 1.67° C | 85% | 1030.6 hPa | - | - | - | - |
| 1777348097 | 2.22° C | 84% | 1030.7 hPa | - | - | - | - |
| 1777347497 | 1.67° C | 85% | 1030.5 hPa | - | - | - | - |
| 1777346897 | 1.11° C | 85% | 1030.4 hPa | - | - | - | - |
| 1777346297 | 1.11° C | 85% | 1030.4 hPa | - | - | - | - |
| 1777345697 | 1.11° C | 84% | 1030.4 hPa | - | - | - | - |
| 1777345097 | 1.67° C | 83% | 1030.3 hPa | - | - | - | - |
| 1777344496 | 1.67° C | 83% | 1030.4 hPa | - | - | - | - |
| 1777343896 | 1.67° C | 82% | 1030.4 hPa | - | - | - | - |
| 1777343297 | 1.67° C | 83% | 1030.4 hPa | - | - | - | - |
| 1777342697 | 1.67° C | 82% | 1030.5 hPa | - | - | - | - |
| 1777342096 | 2.22° C | 82% | 1030.4 hPa | - | - | - | - |
| 1777341496 | 1.67° C | 84% | 1030.5 hPa | - | - | - | - |
| 1777340897 | 2.22° C | 82% | 1030.5 hPa | - | - | - | - |
| 1777340296 | 2.22° C | 82% | 1030.6 hPa | - | - | - | - |
| 1777339697 | 2.22° C | 82% | 1030.6 hPa | - | - | - | - |
| 1777339096 | 2.78° C | 82% | 1030.7 hPa | - | - | - | - |
| 1777338497 | 2.22° C | 84% | 1030.8 hPa | - | - | - | - |
| 1777337896 | 2.22° C | 84% | 1030.6 hPa | - | - | - | - |
| 1777337296 | 2.22° C | 84% | 1030.7 hPa | - | - | - | - |
* Rain since midnight (hover to see other rain measurements)
** Current wind speed in m/s (hover to see current wind gust speed)